Weather reports worldwide

Advertisment
Bingley, United Kingdom (3344): temperature & dewpoint: 15.06.2018 22:00:00 - 21.06.2018 22:00:00 (BST)Bingley, United Kingdom (3344): temperature -20cm: 15.06.2018 22:00:00 - 21.06.2018 22:00:00 (BST)Bingley, United Kingdom (3344): wind speed & gusts: 15.06.2018 22:00:00 - 21.06.2018 22:00:00 (BST)Bingley, United Kingdom (3344): wind direction: 15.06.2018 22:00:00 - 21.06.2018 22:00:00 (BST)Bingley, United Kingdom (3344): reduced air pressure: 15.06.2018 22:00:00 - 21.06.2018 22:00:00 (BST)Bingley, United Kingdom (3344): visibility: 15.06.2018 22:00:00 - 21.06.2018 22:00:00 (BST)Bingley, United Kingdom (3344): precipitation: 15.06.2018 22:00:00 - 21.06.2018 22:00:00 (BST)
Date & Time tt [°C] td [°C] tt -20cm [°C] ff [km/h] ff [kn] fx [km/h] fx [kn] dd ppp [hPa] vv [km] rr [mm]
21.06.2018 22:00:00 10,6 6,9 - 8 4 - - W 1029,6 25 0,0
21.06.2018 21:00:00 12,4 7,5 - 9 5 - - W 1029,1 24 0,0
21.06.2018 20:00:00 13,7 7,2 - 9 5 - - W 1028,5 35 0,0
21.06.2018 19:00:00 14,2 7,1 - 13 7 - - W 1028,0 20 0,0
21.06.2018 18:00:00 15,0 6,7 - 11 6 - - WNW 1027,6 25 0,0
21.06.2018 17:00:00 14,9 5,9 - 11 6 - - W 1027,3 40 0,0
21.06.2018 16:00:00 14,5 4,6 - 15 8 - - WNW 1026,9 40 0,0
21.06.2018 15:00:00 14,5 3,3 - 13 7 - - WNW 1026,7 45 0,0
21.06.2018 14:00:00 15,1 4,2 - 15 8 - - WNW 1026,3 30 0,0
21.06.2018 13:00:00 13,4 3,6 - 21 11 - - NW 1026,4 40 0,0
21.06.2018 12:00:00 14,0 5,4 - 21 11 - - NNW 1025,9 40 0,0
21.06.2018 11:00:00 11,4 3,2 - 16 9 - - NW 1025,8 45 0,0
21.06.2018 10:00:00 11,7 3,4 15,9 26 14 - - NW 1024,9 45 0,0
21.06.2018 09:00:00 10,8 5,5 - 15 8 - - WNW 1024,6 30 0,0
21.06.2018 08:00:00 9,3 4,5 - 26 14 - - NW 1023,9 29 0,0
21.06.2018 07:00:00 8,3 4,8 - 22 12 - - WNW 1022,8 35 0,0
21.06.2018 06:00:00 7,6 5,0 - 15 8 - - WNW 1022,2 40 0,0
21.06.2018 05:00:00 7,2 4,8 - 15 8 - - WNW 1021,3 30 0,0
21.06.2018 04:00:00 7,3 4,1 - 16 9 - - W 1020,6 29 0,0
21.06.2018 03:00:00 7,5 5,5 - 9 5 - - W 1021,3 35 0,2
21.06.2018 02:00:00 8,3 6,3 - 21 11 - - WNW 1021,2 17 0,0
21.06.2018 01:00:00 8,8 6,5 - 9 5 - - W 1020,8 28 0,0
21.06.2018 00:00:00 8,5 4,8 - 8 4 - - W 1020,7 50 0,0
20.06.2018 23:00:00 9,3 4,3 - 11 6 - - WNW 1020,4 50 0,0
20.06.2018 22:00:00 10,5 4,2 - 11 6 - - W 1020,3 45 0,0
20.06.2018 21:00:00 11,2 5,2 - 9 5 - - W 1019,8 45 0,0
20.06.2018 20:00:00 11,9 5,5 - 9 5 - - W 1019,1 40 0,0
20.06.2018 19:00:00 13,4 8,3 - 11 6 - - W 1018,7 30 0,0
20.06.2018 18:00:00 14,3 8,6 - 15 8 - - W 1018,4 29 0,0
20.06.2018 17:00:00 15,9 8,9 - 15 8 - - W 1018,0 30 0,0
20.06.2018 16:00:00 15,5 9,8 - 13 7 - - W 1017,8 27 0,0
20.06.2018 15:00:00 14,1 10,1 - 13 7 - - WNW 1017,7 29 0,0
20.06.2018 14:00:00 15,6 13,1 - 13 7 - - W 1016,7 30 0,0
20.06.2018 13:00:00 14,4 13,5 - 15 8 - - W 1016,5 8 0,0
20.06.2018 12:00:00 15,1 14,0 - 21 11 50 27 W 1015,6 30 0,4
20.06.2018 11:00:00 15,4 14,4 - 22 12 54 29 WSW 1015,0 3,8 0,2
20.06.2018 10:00:00 16,9 14,8 16,2 18 10 46 25 WSW 1014,4 8 0,0
20.06.2018 09:00:00 15,7 14,9 - 22 12 46 25 SW 1014,1 3,8 0,0
20.06.2018 08:00:00 15,9 13,9 - 28 15 52 28 SW 1013,7 7 0,0
20.06.2018 07:00:00 15,6 13,6 - 26 14 52 28 SW 1014,1 35 0,0
20.06.2018 06:00:00 15,5 13,4 - 22 12 - - SW 1014,4 45 0,0
20.06.2018 05:00:00 15,6 13,5 - 18 10 48 26 SSW 1014,8 40 0,0
20.06.2018 04:00:00 15,5 13,4 - 22 12 46 25 SW 1014,9 35 0,0
20.06.2018 03:00:00 15,8 13,5 - 22 12 - - SW 1015,6 30 0,0
20.06.2018 02:00:00 16,0 13,7 - 22 12 - - SW 1016,5 40 0,0
20.06.2018 01:00:00 16,1 13,6 - 21 11 50 27 SW 1016,9 50 0,0
20.06.2018 00:00:00 16,7 13,4 - 28 15 50 27 SW 1017,1 45 0,0
19.06.2018 23:00:00 17,1 13,8 - 24 13 - - SW 1017,3 45 0,0
19.06.2018 22:00:00 17,4 14,6 - 22 12 - - SW 1017,5 45 0,0
19.06.2018 21:00:00 17,7 14,2 - 24 13 50 27 SW 1017,2 45 0,0
19.06.2018 20:00:00 18,1 14,1 - 22 12 46 25 SW 1017,5 35 0,0
19.06.2018 19:00:00 18,4 14,3 - 22 12 - - SW 1017,9 50 0,0
19.06.2018 18:00:00 19,4 14,8 - 16 9 - - SW 1018,2 30 0,0
19.06.2018 17:00:00 18,1 14,3 - 18 10 - - SW 1018,9 35 0,0
19.06.2018 16:00:00 16,6 12,9 - 9 5 - - WSW 1019,3 28 0,0
19.06.2018 15:00:00 16,6 12,0 - 15 8 - - SW 1019,7 35 0,0
19.06.2018 14:00:00 16,2 10,6 - 13 7 - - SW 1020,0 35 0,0
19.06.2018 13:00:00 16,3 8,7 - 13 7 - - SW 1020,4 19 0,0
19.06.2018 12:00:00 17,4 9,4 - 13 7 - - SW 1020,4 29 0,0
19.06.2018 11:00:00 15,8 8,2 - 13 7 - - WSW 1020,7 25 0,0
19.06.2018 10:00:00 14,0 8,3 16,0 13 7 - - W 1020,9 30 0,0
19.06.2018 09:00:00 11,8 7,9 - 11 6 - - W 1021,3 12 0,0
19.06.2018 08:00:00 11,1 8,4 - 9 5 - - W 1021,3 16 0,0
19.06.2018 07:00:00 9,7 7,3 - 8 4 - - W 1021,0 14 0,0
19.06.2018 06:00:00 9,8 7,3 - 9 5 - - WSW 1020,2 19 0,0
19.06.2018 05:00:00 9,4 7,2 - 5 3 - - W 1019,9 23 0,0
19.06.2018 04:00:00 9,9 8,1 - 5 3 - - W 1019,3 24 0,0
19.06.2018 03:00:00 10,9 8,5 - 9 5 - - W 1018,7 26 0,0
19.06.2018 02:00:00 12,7 11,9 - 8 4 - - W 1018,0 13 0,0
19.06.2018 01:00:00 13,1 12,7 - 5 3 - - W 1017,4 11 0,2
19.06.2018 00:00:00 13,5 13,3 - 5 3 - - W 1016,8 3,9 0,4
18.06.2018 23:00:00 14,2 13,8 - 11 6 - - W 1016,3 3,2 0,4
18.06.2018 22:00:00 14,6 14,4 - 11 6 - - WSW 1015,7 3,6 1,4
18.06.2018 21:00:00 14,8 13,9 - 9 5 - - SW 1015,1 4,5 0,0
18.06.2018 20:00:00 14,3 13,4 - 8 4 - - SW 1015,2 20 0,2
18.06.2018 19:00:00 15,9 11,8 - 13 7 - - SW 1015,1 12 0,0
18.06.2018 18:00:00 16,9 11,7 - 13 7 - - WSW 1015,0 23 0,0
18.06.2018 17:00:00 16,2 10,8 - 21 11 - - WSW 1015,5 30 0,0
18.06.2018 16:00:00 16,7 10,0 - 18 10 - - W 1015,3 21 0,0
18.06.2018 15:00:00 18,1 11,1 - 21 11 - - WSW 1015,2 21 0,0
18.06.2018 14:00:00 16,7 9,6 - 16 9 48 26 W 1015,4 30 0,0
18.06.2018 13:00:00 15,8 9,5 - 24 13 50 27 WSW 1015,2 24 0,0
18.06.2018 12:00:00 15,2 8,1 - 21 11 48 26 W 1015,5 26 0,0
18.06.2018 11:00:00 14,9 8,8 - 22 12 48 26 WSW 1015,4 20 0,0
18.06.2018 10:00:00 13,5 8,4 15,7 26 14 - - WSW 1015,2 24 0,0
18.06.2018 09:00:00 12,2 9,8 - 18 10 - - W 1015,1 17 0,0
18.06.2018 08:00:00 12,1 9,7 - 18 10 - - W 1014,5 18 0,0
18.06.2018 07:00:00 12,0 10,0 - 21 11 46 25 W 1013,8 30 0,0
18.06.2018 06:00:00 11,6 9,8 - 18 10 - - W 1013,0 40 0,0
18.06.2018 05:00:00 11,9 10,6 - 15 8 - - W 1013,2 30 0,0
18.06.2018 04:00:00 12,1 10,8 - 18 10 - - W 1012,7 35 0,0
18.06.2018 03:00:00 13,1 12,0 - 11 6 - - W 1013,0 6 0,0
18.06.2018 02:00:00 13,4 12,0 - 13 7 - - W 1012,8 25 0,0
18.06.2018 01:00:00 13,6 12,4 - 13 7 - - WSW 1012,7 25 0,0
18.06.2018 00:00:00 14,1 13,3 - 13 7 - - WSW 1012,4 19 0,2
17.06.2018 23:00:00 14,3 13,6 - 18 10 - - SW 1011,9 8 0,2
17.06.2018 22:00:00 14,6 13,6 - 18 10 - - SW 1011,6 12 0,0
17.06.2018 21:00:00 14,1 13,4 - 13 7 - - SSW 1011,7 5 0,0
17.06.2018 20:00:00 14,1 12,8 - 18 10 - - SSW 1011,7 17 0,0
17.06.2018 19:00:00 14,4 13,3 - 16 9 - - SSW 1011,4 5 0,0
17.06.2018 18:00:00 14,6 11,7 - 13 7 - - S 1011,4 30 0,0
17.06.2018 17:00:00 14,8 11,1 - 15 8 - - SSW 1012,0 40 0,0
17.06.2018 16:00:00 15,2 9,8 - 15 8 - - SSW 1012,1 28 0,0
17.06.2018 15:00:00 15,6 9,2 - 15 8 - - SSW 1012,2 40 0,0
17.06.2018 14:00:00 15,7 8,2 - 16 9 - - SW 1012,1 30 0,0
17.06.2018 13:00:00 14,8 8,1 - 16 9 - - SSW 1012,4 45 0,0
17.06.2018 12:00:00 13,9 9,2 - 13 7 - - SW 1012,6 35 0,0
17.06.2018 11:00:00 14,0 8,6 - 15 8 - - WSW 1012,7 35 0,0
17.06.2018 10:00:00 13,4 9,2 15,5 16 9 - - WSW 1012,5 30 0,0
17.06.2018 09:00:00 12,1 10,2 - 15 8 - - WSW 1012,7 27 0,0
17.06.2018 08:00:00 10,7 9,7 - 11 6 - - WSW 1012,5 8 0,2
17.06.2018 07:00:00 10,8 9,5 - 11 6 - - WSW 1012,0 7 0,2
17.06.2018 06:00:00 11,0 9,3 - 15 8 - - W 1011,4 10 0,0
17.06.2018 05:00:00 10,9 9,4 - 15 8 - - W 1011,1 17 0,0
17.06.2018 04:00:00 10,5 9,0 - 9 5 - - W 1011,0 19 0,0
17.06.2018 03:00:00 11,0 8,9 - 13 7 - - WSW 1011,0 22 0,0
17.06.2018 02:00:00 11,4 8,8 - 16 9 - - WSW 1010,9 23 0,0
17.06.2018 01:00:00 11,1 8,7 - 13 7 - - WSW 1010,8 20 0,0
17.06.2018 00:00:00 11,7 8,7 - 13 7 - - WSW 1010,5 23 0,0
16.06.2018 23:00:00 11,8 8,6 - 13 7 - - WSW 1010,3 30 0,0
16.06.2018 22:00:00 12,1 8,7 - 13 7 - - WSW 1010,1 45 0,0
16.06.2018 21:00:00 12,5 8,4 - 13 7 - - W 1009,6 35 0,0
16.06.2018 20:00:00 13,7 8,5 - 16 9 - - W 1009,2 40 0,0
16.06.2018 19:00:00 13,7 8,5 - 15 8 - - W 1008,8 45 0,0
16.06.2018 18:00:00 14,0 9,5 - 13 7 - - W 1008,6 27 0,0
16.06.2018 17:00:00 13,4 11,3 - 11 6 - - W 1008,5 35 11,8
16.06.2018 16:00:00 15,7 11,1 - 16 9 48 26 SSW 1007,3 22 0,2
16.06.2018 15:00:00 16,5 10,9 - 21 11 - - SSW 1008,0 27 0,0
16.06.2018 14:00:00 14,9 10,3 - 22 12 - - SW 1008,9 40 0,0
16.06.2018 13:00:00 13,3 10,4 - 21 11 - - SSW 1009,9 7 0,0
16.06.2018 12:00:00 13,6 9,3 - 18 10 - - SSW 1010,3 17 0,0
16.06.2018 11:00:00 12,4 9,3 - 16 9 - - SSW 1010,9 35 0,0
16.06.2018 10:00:00 12,6 8,4 15,9 13 7 - - S 1011,2 50 0,0
16.06.2018 09:00:00 11,8 9,0 - 13 7 - - SSW 1011,9 35 0,0
16.06.2018 08:00:00 10,5 8,6 - 8 4 - - S 1012,4 35 0,0
16.06.2018 07:00:00 9,7 8,1 - 11 6 - - SSW 1012,4 19 0,2
16.06.2018 06:00:00 9,8 6,6 - 9 5 - - SSW 1012,5 35 0,0
16.06.2018 05:00:00 8,3 5,8 - 4 2 - - S 1013,0 40 0,0
16.06.2018 04:00:00 8,1 5,7 - 5 3 - - SSW 1013,6 50 0,0
16.06.2018 03:00:00 7,0 4,6 - 5 3 - - SSW 1014,2 40 0,0
16.06.2018 02:00:00 7,5 4,7 - 8 4 - - S 1014,5 27 0,0
16.06.2018 01:00:00 8,3 5,4 - 2 1 - - ENE 1014,8 40 0,0
16.06.2018 00:00:00 8,7 5,5 - 5 3 - - SW 1014,8 45 0,0
15.06.2018 23:00:00 9,6 5,6 - 4 2 - - NW 1015,0 40 0,0
15.06.2018 22:00:00 11,4 6,0 - 4 2 - - SSW 1014,8 45 0,0

tt = temperature
td = dewpoint
tt -20cm = temperature -20cm
ff = wind speed
fx = gusts
dd = wind direction
ppp = reduced air pressure
vv = visibility
rr = precipitation

Next stations